Flag for Greece Weather past 2 weeks in Nikaia, Greece

Now
64 °F

Passing clouds.


Feels Like: 64 °F
Forecast: 54 / 65 °F
Wind: 13 mph from West

Location: Elefsis Airport

Current Time: Mar 30, 2015 at 1:22:56 PM

Latest Report: Mar 30, 2015 at 12:50 PM


Visibility: N/A

Pressure: 29.83 "Hg

Humidity: 32%

Dew point: 34 °F

Location of NikaiaLocation

Historic Weather in Nikaia — Graph

°F

Nikaia temperature yesterday

Maximum temperature yesterday: 63 °F (at 5:20 PM)
Minimum temperature yesterday: 50 °F (at 10:50 PM)
Average temperature yesterday: 56 °F

Past Weeks' High & Low Weather Summary

 TemperatureHumidityPressure
High64 °F (Mar 27, 4:50 PM)100% (Mar 26, 7:20 PM)30.45 "Hg (Mar 26, 7:20 PM)
Low34 °F (Mar 21, 6:50 AM)25% (Mar 21, 1:20 PM)29.53 "Hg (Mar 28, 3:50 AM)
Average53 °F69%30.04 "Hg
* Reported Mar 15 10:20 AM — Mar 30 11:50 AM, Nikaia, Weather by CustomWeather, © 2015

Note: Actual official high and low records may vary slightly from our data, if they occured in-between our weather recording intervals... More about our weather records

Advertising

Nikaia weather history for previous 24 hours

 ConditionsComfort  
Time TempWeatherWind HumidityBarometerVisibility
11:50 AM
Mon, Mar 30
63 °FPassing clouds.8 mph42%29.86 "HgN/A
11:20 AM63 °FPassing clouds.9 mph45%29.86 "HgN/A
10:50 AM59 °FPassing clouds.No wind55%29.86 "HgN/A
10:20 AM61 °FPassing clouds.No wind63%29.86 "HgN/A
9:50 AM57 °FPassing clouds.No wind77%29.86 "HgN/A
9:20 AM57 °FPassing clouds.No wind77%29.86 "HgN/A
8:50 AM52 °FPassing clouds.No wind88%29.86 "HgN/A
8:20 AM50 °FPassing clouds.No wind94%29.86 "HgN/A
7:50 AM46 °FPassing clouds.No wind93%29.86 "HgN/A
7:20 AM45 °FPassing clouds.No wind93%29.86 "HgN/A
6:50 AM46 °FPassing clouds.No wind87%29.86 "HgN/A
6:20 AM46 °FPassing clouds.5 mph93%29.86 "HgN/A
5:50 AM46 °FPassing clouds.5 mph93%29.83 "HgN/A
5:20 AM46 °FPassing clouds.No wind93%29.83 "HgN/A
4:50 AM46 °FPassing clouds.No wind93%29.83 "HgN/A
4:20 AM48 °FPassing clouds.No wind87%29.86 "HgN/A
3:50 AM48 °FPassing clouds.No wind87%29.86 "HgN/A
3:20 AM50 °FPassing clouds.No wind94%29.86 "HgN/A
2:50 AM50 °FPassing clouds.No wind94%29.86 "HgN/A
1:50 AM48 °FPassing clouds.No wind94%29.86 "HgN/A
1:20 AM50 °FPassing clouds.No wind88%29.86 "HgN/A
12:50 AM50 °FPassing clouds.No wind94%29.86 "HgN/A
12:20 AM50 °FPassing clouds.5 mph94%29.86 "HgN/A
11:50 PM
Sun, Mar 29
50 °FPassing clouds.5 mph88%29.86 "HgN/A
11:20 PM50 °FPassing clouds.5 mph88%29.86 "HgN/A
10:50 PM50 °FPassing clouds.5 mph88%29.86 "HgN/A
10:20 PM52 °FPassing clouds.No wind88%29.86 "HgN/A
9:50 PM55 °FPartly cloudy.No wind82%29.83 "HgN/A
9:20 PM55 °FPartly cloudy.No wind82%29.83 "HgN/A
8:50 PM55 °FPartly cloudy.2 mph82%29.83 "HgN/A
8:20 PM55 °FBroken clouds.5 mph82%29.80 "HgN/A
7:50 PM57 °FPartly sunny.5 mph77%29.80 "HgN/A
7:20 PM57 °FPartly sunny.6 mph77%29.80 "HgN/A
6:50 PM57 °FMostly cloudy.3 mph72%29.80 "HgN/A
6:20 PM57 °FMostly cloudy.6 mph77%29.77 "HgN/A
5:50 PM61 °FMostly cloudy.6 mph68%29.77 "HgN/A
5:20 PM63 °FMostly cloudy.No wind56%29.77 "HgN/A
4:50 PM61 °FMostly cloudy.3 mph55%29.77 "HgN/A
4:20 PM61 °FMostly cloudy.8 mph55%29.77 "HgN/A
3:50 PM61 °FMostly cloudy.7 mph55%29.77 "HgN/A
3:20 PM61 °FBroken clouds.9 mph59%29.77 "HgN/A
2:50 PM61 °FBroken clouds.10 mph59%29.77 "HgN/A
2:20 PM61 °FBroken clouds.14 mph59%29.77 "HgN/A
1:50 PM61 °FBroken clouds.12 mph59%29.77 "HgN/A
1:20 PM59 °FBroken clouds.12 mph63%29.77 "HgN/A
Weather by CustomWeather, © 2015

See weather overviewHow to use our weather pages